Weather History for Saguache, CO

Change the Weather History Date:

Sunday, July 7, 2013

  Actual Average (KALS) Record (KALS)
Temperature  
Mean Temperature 68 °F 64 °F  
Max Temperature 80 °F 83 °F 93 °F (1989)
Min Temperature 55 °F 46 °F 35 °F (1945)
Degree Days  
Heating Degree Days 0 2  
Month to date heating degree days 14  
Since 1 June heating degree days 182  
Since 1 July heating degree days 14  
Cooling Degree Days 2 1  
Month to date cooling degree days 7  
Year to date cooling degree days 13  
Since 1 June cooling degree days 13  
Growing Degree Days 18 (Base 50)    
Moisture  
Dew Point 47 °F    
Average Humidity 54    
Maximum Humidity 82    
Minimum Humidity 28    
Precipitation  
Precipitation 0.02 in 0.03 in 0.71 in (1981)
Month to date precipitation 0.18  
Year to date precipitation 2.89  
Snow  
Snow 0.00 in 0.00 in 0.00 in (2002)
Month to date snowfall 0.0  
Since 1 June snowfall 0.0  
Since 1 July snowfall 0.0  
Snow Depth -    
Sea Level Pressure  
Sea Level Pressure 30.29 in    
Wind  
Wind Speed 6 mph (ESE)    
Max Wind Speed 21 mph    
Max Gust Speed 33 mph    
Visibility 10 miles    
Events Thunderstorm    
T = Trace of Precipitation, MM = Missing Value Source: NWS Daily Summary

Daily Weather History Graph

Daily Weather History Graph

Search for Another Location

Airport:

Trip Planner

Search our weather history database for the weather conditions in past years. The results will help you decide how hot, cold, wet, or windy it might be!

Date:

Astronomy

Jul. 07, 2013 Rise Set
Actual Time 5:48 AM MDT 8:30 PM MDT
Civil Twilight 5:17 AM MDT 9:01 PM MDT
Nautical Twilight 4:38 AM MDT 9:40 PM MDT
Astronomical Twilight 3:55 AM MDT 10:23 PM MDT
Moon 5:26 AM MDT (7/7) 7:57 PM MDT (7/7)
Length of Visible Light 15h 43m
Length of Day
14h 41m
Waning Crescent, 0% of the Moon is Illuminated
Jul 7
Waning Crescent
Jul 8
New
Jul 15
First Quarter
Jul 22
Full
Jul 29
Last Quarter

Hourly Weather History & Observations

Time (MDT) Temp. Dew Point Humidity Pressure Visibility Wind Dir Wind Speed Gust Speed Precip Events Conditions
12:14 AM 59.0 °F 48.2 °F 67% 30.31 in 10.0 mi South 5.8 mph - N/A   Clear
12:34 AM 59.0 °F 48.2 °F 67% 30.31 in 10.0 mi SSE 5.8 mph - N/A   Clear
12:53 AM 59.0 °F 48.2 °F 67% 30.31 in 10.0 mi Calm Calm - N/A   Clear
1:13 AM 57.2 °F 48.2 °F 72% 30.31 in 10.0 mi Calm Calm - N/A   Scattered Clouds
1:34 AM 55.4 °F 48.2 °F 77% 30.31 in 10.0 mi North 6.9 mph - N/A   Scattered Clouds
1:54 AM 57.2 °F 48.2 °F 72% 30.31 in 10.0 mi North 4.6 mph - N/A   Mostly Cloudy
2:13 AM 57.2 °F 48.2 °F 72% 30.31 in 10.0 mi West 3.5 mph - N/A   Overcast
2:34 AM 57.2 °F 48.2 °F 72% 30.31 in 10.0 mi NW 5.8 mph - N/A   Scattered Clouds
2:54 AM 57.2 °F 48.2 °F 72% 30.30 in 10.0 mi NW 6.9 mph - N/A   Clear
3:14 AM 57.2 °F 48.2 °F 72% 30.29 in 10.0 mi NNW 8.1 mph - N/A   Clear
3:34 AM 57.2 °F 48.2 °F 72% 30.29 in 10.0 mi NNW 9.2 mph - N/A   Clear
3:54 AM 57.2 °F 48.2 °F 72% 30.29 in 10.0 mi North 11.5 mph - N/A   Clear
4:14 AM 57.2 °F 48.2 °F 72% 30.29 in 10.0 mi NNW 8.1 mph - N/A   Clear
4:34 AM 59.0 °F 46.4 °F 63% 30.29 in 10.0 mi NW 8.1 mph - N/A   Clear
4:54 AM 57.2 °F 46.4 °F 67% 30.29 in 10.0 mi North 6.9 mph - N/A   Clear
5:13 AM 55.4 °F 46.4 °F 72% 30.29 in 10.0 mi NNW 6.9 mph - N/A   Clear
5:34 AM 55.4 °F 46.4 °F 72% 30.29 in 10.0 mi NW 8.1 mph - N/A   Clear
5:54 AM 57.2 °F 46.4 °F 67% 30.29 in 10.0 mi NNW 6.9 mph - N/A   Clear
6:14 AM 59.0 °F 46.4 °F 63% 30.29 in 10.0 mi NW 9.2 mph - N/A   Clear
6:34 AM 59.0 °F 46.4 °F 63% 30.29 in 10.0 mi NNW 6.9 mph - N/A   Clear
6:54 AM 60.8 °F 46.4 °F 59% 30.29 in 10.0 mi Calm Calm - N/A   Clear
7:14 AM 62.6 °F 46.4 °F 55% 30.30 in 10.0 mi WNW 3.5 mph - N/A   Clear
7:34 AM 62.6 °F 46.4 °F 55% 30.31 in 10.0 mi North 5.8 mph - N/A   Clear
7:53 AM 62.6 °F 46.4 °F 55% 30.31 in 10.0 mi Calm Calm - N/A   Clear
8:13 AM 60.8 °F 48.2 °F 63% 30.32 in 10.0 mi ESE 5.8 mph - N/A   Clear
8:34 AM 60.8 °F 48.2 °F 63% 30.33 in 10.0 mi Calm Calm - N/A   Clear
8:54 AM 62.6 °F 46.4 °F 55% 30.33 in 10.0 mi Calm Calm - N/A   Clear
9:14 AM 66.2 °F 46.4 °F 49% 30.33 in 10.0 mi SE 4.6 mph - N/A   Clear
9:33 AM 66.2 °F 46.4 °F 49% 30.32 in 10.0 mi SSE 3.5 mph - N/A   Clear
9:54 AM 68.0 °F 46.4 °F 46% 30.32 in 10.0 mi SE 3.5 mph - N/A   Mostly Cloudy
10:14 AM 69.8 °F 46.4 °F 43% 30.31 in 10.0 mi SSE 6.9 mph - N/A   Mostly Cloudy
10:34 AM 71.6 °F 46.4 °F 41% 30.31 in 10.0 mi South 6.9 mph - N/A   Scattered Clouds
10:54 AM 73.4 °F 44.6 °F 36% 30.31 in 10.0 mi SSE 5.8 mph - N/A   Clear
11:14 AM 73.4 °F 44.6 °F 36% 30.31 in 10.0 mi South 5.8 mph - N/A   Scattered Clouds
11:34 AM 77.0 °F 44.6 °F 32% 30.30 in 10.0 mi SSE 5.8 mph - N/A   Scattered Clouds
11:53 AM 77.0 °F 46.4 °F 34% 30.29 in 10.0 mi South 13.8 mph - N/A   Clear
12:14 PM 77.0 °F 46.4 °F 34% 30.29 in 10.0 mi SSE 11.5 mph - N/A   Clear
12:34 PM 78.8 °F 46.4 °F 32% 30.29 in 10.0 mi South 10.4 mph 16.1 mph N/A   Clear
12:54 PM 77.0 °F 46.4 °F 34% 30.29 in 10.0 mi South 9.2 mph - N/A   Clear
1:14 PM 75.2 °F 46.4 °F 36% 30.28 in 10.0 mi South 6.9 mph - N/A Thunderstorm Clear
1:33 PM 78.8 °F 46.4 °F 32% 30.28 in 10.0 mi South 6.9 mph - N/A   Clear
1:54 PM 77.0 °F 44.6 °F 32% 30.28 in 10.0 mi SSE 6.9 mph - N/A   Clear
2:14 PM 78.8 °F 44.6 °F 30% 30.27 in 10.0 mi SSE 4.6 mph - N/A   Clear
2:34 PM 80.6 °F 44.6 °F 28% 30.25 in 10.0 mi SSW 4.6 mph - N/A   Clear
2:53 PM 78.8 °F 44.6 °F 30% 30.25 in 10.0 mi SSE 5.8 mph - N/A   Clear
3:14 PM 77.0 °F 42.8 °F 29% 30.24 in 10.0 mi South 4.6 mph - N/A   Clear
3:34 PM 77.0 °F 42.8 °F 29% 30.25 in 10.0 mi SSE 3.5 mph - N/A Thunderstorm Thunderstorm
3:53 PM 77.0 °F 42.8 °F 29% 30.26 in 10.0 mi NW 11.5 mph 17.3 mph N/A   Overcast
4:14 PM 68.0 °F 46.4 °F 46% 30.28 in 5.0 mi NNE 20.7 mph 33.4 mph N/A   Overcast
4:34 PM 66.2 °F 48.2 °F 52% 30.24 in 10.0 mi NE 12.7 mph 28.8 mph N/A   Overcast
4:54 PM 69.8 °F 44.6 °F 40% 30.27 in 10.0 mi North 9.2 mph - N/A Thunderstorm Thunderstorm
5:14 PM 66.2 °F 51.8 °F 60% 30.29 in 7.0 mi NNW 9.2 mph 26.5 mph N/A   Overcast
5:34 PM 69.8 °F 48.2 °F 46% 30.28 in 10.0 mi West 5.8 mph - N/A Thunderstorm Mostly Cloudy
5:54 PM 68.0 °F 46.4 °F 46% 30.25 in 10.0 mi SSE 4.6 mph - N/A   Scattered Clouds
6:14 PM 68.0 °F 48.2 °F 49% 30.25 in 10.0 mi NW 4.6 mph - N/A   Clear
6:34 PM 66.2 °F 53.6 °F 64% 30.24 in 10.0 mi North 10.4 mph - N/A   Clear
6:54 PM 71.6 °F 50.0 °F 46% 30.25 in 10.0 mi NNE 8.1 mph - N/A   Clear
7:14 PM 71.6 °F 46.4 °F 41% 30.26 in 10.0 mi NNE 3.5 mph - N/A   Scattered Clouds
7:34 PM 69.8 °F 48.2 °F 46% 30.26 in 10.0 mi South 5.8 mph - N/A   Clear
7:54 PM 68.0 °F 48.2 °F 49% 30.27 in 10.0 mi South 6.9 mph - N/A   Scattered Clouds
8:13 PM 68.0 °F 46.4 °F 46% 30.28 in 10.0 mi South 3.5 mph - N/A   Scattered Clouds
8:34 PM 64.4 °F 46.4 °F 52% 30.28 in 10.0 mi East 3.5 mph - N/A Thunderstorm Scattered Clouds
8:54 PM 62.6 °F 46.4 °F 55% 30.29 in 10.0 mi East 3.5 mph - N/A Thunderstorm Clear
9:14 PM 60.8 °F 50.0 °F 68% 30.31 in 10.0 mi NNE 8.1 mph - N/A   Clear
9:33 PM 60.8 °F 48.2 °F 63% 30.31 in 10.0 mi ENE 5.8 mph - N/A   Scattered Clouds
9:54 PM 60.8 °F 48.2 °F 63% 30.31 in 10.0 mi East 4.6 mph - N/A   Mostly Cloudy
10:14 PM 60.8 °F 48.2 °F 63% 30.33 in 10.0 mi SW 4.6 mph - N/A   Mostly Cloudy
10:34 PM 59.0 °F 48.2 °F 67% 30.34 in 10.0 mi Calm Calm - N/A   Mostly Cloudy
10:54 PM 60.8 °F 50.0 °F 68% 30.35 in 10.0 mi Calm Calm - N/A   Overcast
11:13 PM 59.0 °F 51.8 °F 77% 30.31 in 5.0 mi SE 15.0 mph - 0.02 in   Overcast
11:34 PM 59.0 °F 53.6 °F 82% 30.39 in 10.0 mi NW 15.0 mph - 0.02 in   Overcast
11:54 PM 59.0 °F 51.8 °F 77% 30.39 in 10.0 mi NNW 5.8 mph - 0.02 in Thunderstorm Overcast